Voltar ao catálogo

SAUDICOMSAT 2

AtivoComunicaçõesSSO
NORAD 28370·PAYLOAD·🇸🇦 Saudi Arabia

Lançado Jun 29, 2004 de Baikonur Cosmodrome

Loading…

Próximas Passagens (próximas 24 horas)

TLE

AtualizadoSource: Space-Track

Época: Sep 14, 2026, 11:41 UTC

1 28370U 04025E   26257.48722667  .00000181  00000-0  58440-4 0  9990
2 28370  98.6650 272.2619 0055358 350.2877   9.7241 14.50024340173044

Acompanhe SAUDICOMSAT 2 em tempo real com AllMySat

Download on the App Store